COSMOS 2485 (747)

Last updated on July 6, 2021, 3:40 p.m. UTC

1 39155U 13019A   21186.72789794  .00000002  00000-0  00000-0 0  9990
2 39155  64.7408 134.5293 0022227 237.1130  72.9061  2.13101930 63760
UTC
Height (km)
Latitude
Longitude
Inclination
Orbital Period
UTC large
Height (km)
Speed (km/s)
/
Latitude / Longitude
Inclination (degrees)
Orbital Period (minutes)
Azimuth
Elevation
Range (km)
Doppler Factor
iOS Compass Heading
iOS Angle